Regional Weather Roundup
Issued by NWS

Home | Current Version | Previous Version | Text Only | Print | Product List | Glossary Off
Versions: 1 2 3 4 5 6 7 8 9 10 11 12 13 14 15 16 17 18 19 20 21 22 23 24 25 26 27 28 29 30 31 32 33 34 35 36 37 38 39 40 41 42 43 44 45 46 47 48 49 50

000
ASUS43 KOAX 201502
RWRNE

WEATHER ROUNDUP FOR NEBRASKA
NATIONAL WEATHER SERVICE OMAHA NE
1000 AM CDT SUN MAY 20 2018

NOTES: SATELLITE DATA IS BEING USED TO AUGMENT CLOUD COVER ABOVE
       12000 FEET.
       "FAIR" INDICATES FEW OR NO CLOUDS BELOW 12,000 FEET WITH NO
       SIGNIFICANT WEATHER AND/OR OBSTRUCTIONS TO VISIBILITY.


NEZ001>004-019>022-054>056-201600-
NEBRASKA PANHANDLE

CITY           SKY/WX    TMP DP  RH WIND       PRES   REMARKS
SCOTTSBLUFF    MOSUNNY   49  40  71 CALM      30.28S
ALLIANCE       CLOUDY    46  41  82 N6        30.25F
CHADRON        MOSUNNY   50  42  74 CALM      30.28R
GORDON         FAIR      51  39  64 NE3       30.25F
KIMBALL        CLOUDY    46  38  74 CALM      30.27F
SIDNEY         MOSUNNY   50  39  66 NW5       30.27S
$$

NEZ057>060-069>072-079>082-201600-
SOUTHWEST NEBRASKA

CITY           SKY/WX    TMP DP  RH WIND       PRES   REMARKS
NORTH PLATTE   CLOUDY    50  45  83 N6        30.22R
IMPERIAL       CLOUDY    55  44  66 NW12      30.22F
LEXINGTON      CLOUDY    51  49  92 N12       30.19R
MCCOOK         CLOUDY    52  46  80 N14       30.20R
OGALLALA       CLOUDY    54  43  67 N9        30.22S
$$

NEZ005>010-023>029-035>040-094-201600-
NORTH CENTRAL NEBRASKA

CITY           SKY/WX    TMP DP  RH WIND       PRES   REMARKS
VALENTINE      CLOUDY    53  40  61 NE9       30.25R
AINSWORTH      CLOUDY    51  44  77 N7        30.22F
BROKEN BOW     CLOUDY    53  48  83 N12       30.19S
ORD            CLOUDY    52  50  93 NE12      30.17R
THEDFORD       CLOUDY    52  43  70 N8        30.23S
$$

NEZ041-046>049-061>064-073>077-083>087-201600-
SOUTH CENTRAL NEBRASKA

CITY           SKY/WX    TMP DP  RH WIND       PRES   REMARKS
GRAND ISLAND   LGT RAIN  54  53  97 NE13      30.16R FOG
AURORA         CLOUDY    54  54 100 N14       30.15R FOG
HASTINGS       CLOUDY    55  53  93 NE15      30.15S FOG
HEBRON         CLOUDY    58  56  93 N6        30.11F FOG
HOLDREGE       CLOUDY    52  52 100 N13       30.16S FOG
KEARNEY        CLOUDY    53  52  96 N10       30.17R FOG
YORK           LGT RAIN  54  54 100 NE12      30.14S
$$

NEZ011>018-030>034-042>045-201600-
NORTHEAST NEBRASKA

CITY           SKY/WX    TMP DP  RH WIND       PRES   REMARKS
NORFOLK        LGT RAIN  51  50  96 NE8       30.16S FOG
ALBION         CLOUDY    53  51  95 NE9       30.18R
BLAIR          RAIN      54  52  92 N10       30.12S
COLUMBUS       CLOUDY    53  51  93 NE9       30.16R
FREMONT        CLOUDY    55  51  86 N8        30.15R
TEKAMAH        CLOUDY    54  49  83 N14       30.15R
WAYNE          RAIN      51  50  97 NE7       30.17S
$$

NEZ050>053-065>068-078-088>093-201600-
SOUTHEAST NEBRASKA

CITY           SKY/WX    TMP DP  RH WIND       PRES   REMARKS
LINCOLN        CLOUDY    56  54  93 NE12      30.12S FOG
OMAHA EPPLEY   LGT RAIN  57  53  86 N10       30.13R FOG
BEATRICE       CLOUDY    61  58  88 NE8       30.10S FOG
FALLS CITY     CLOUDY    63  58  83 E6        30.09R
NEBRASKA CITY  CLOUDY    60  60 100 N12       30.11R
PLATTSMOUTH    CLOUDY    58  54  85 N3        30.12F
$$

NEZ044-045-051>053-067-201600-
OMAHA AREA

CITY           SKY/WX    TMP DP  RH WIND       PRES   REMARKS
OMAHA EPPLEY   LGT RAIN  57  53  86 N10       30.13R FOG
BLAIR          RAIN      54  52  92 N10       30.12S
FREMONT        CLOUDY    55  51  86 N8        30.15R
MILLARD        CLOUDY    57  55  92 CALM      30.13S
OFFUTT AFB     CLOUDY    57  54  88 N7        30.11R
PLATTSMOUTH    CLOUDY    58  54  85 N3        30.12F
WAHOO          CLOUDY    56  52  86 N12       30.13S
$$




USA.gov is the U.S. government's official web portal to all federal, state and local government web resources and services.